SWA3968 KPVD-KDCA

Flight info

Callsign SWA3968
Flight time 1h 12m
Altitude 30000
Route JUMPR RIFLE Q167 ZIZZI KNUKK ATR LAFLN DEALE3
Aircraft B738/M-VGDW/C

Departure

Time 2026-05-06 18:28
Airport Rhode Island T. F. Green International Airport (KPVD)

Arrival

Time 2026-05-06 19:41
Airport Ronald Reagan Washington National Airport (KDCA)
Time Latitude Longitude Altitude Speed Heading
2026-05-06 18:08 41.72631 -71.43401 65 ft 0 kts 298°
2026-05-06 18:23 41.72624 -71.43383 56 ft 2 kts 298°
2026-05-06 18:23 41.72616 -71.43364 55 ft 2 kts 298°
2026-05-06 18:24 41.72607 -71.43345 58 ft 2 kts 318°
2026-05-06 18:24 41.72595 -71.43336 57 ft 1 kts 20°
2026-05-06 18:24 41.72588 -71.43340 59 ft 0 kts 31°
2026-05-06 18:25 41.72592 -71.43337 58 ft 4 kts 31°
2026-05-06 18:26 41.72666 -71.43269 59 ft 22 kts 33°
2026-05-06 18:26 41.72831 -71.43187 56 ft 21 kts 324°
2026-05-06 18:26 41.72958 -71.43298 61 ft 25 kts 13°
2026-05-06 18:26 41.73070 -71.43249 63 ft 10 kts 20°
2026-05-06 18:27 41.73107 -71.43181 63 ft 10 kts 96°
2026-05-06 18:27 41.73066 -71.43109 57 ft 12 kts 135°
2026-05-06 18:27 41.72810 -71.42843 54 ft 83 kts 141°
2026-05-06 18:27 41.72178 -71.42178 51 ft 145 kts 140°
2026-05-06 18:28 41.71333 -71.41355 632 ft 150 kts 151°
2026-05-06 18:28 41.70395 -71.40774 1433 ft 142 kts 182°
2026-05-06 18:28 41.69427 -71.40622 2411 ft 151 kts 180°
2026-05-06 18:28 41.68277 -71.40302 2766 ft 187 kts 178°
2026-05-06 18:29 41.66920 -71.39894 3197 ft 206 kts 176°
2026-05-06 18:29 41.65985 -71.39602 3616 ft 211 kts 176°
2026-05-06 18:29 41.64550 -71.39150 4311 ft 213 kts 175°
2026-05-06 18:29 41.63094 -71.38695 4882 ft 218 kts 175°
2026-05-06 18:30 41.61572 -71.38225 5271 ft 233 kts 174°
2026-05-06 18:30 41.59953 -71.37728 5823 ft 244 kts 174°
2026-05-06 18:30 41.57760 -71.37050 6974 ft 244 kts 174°
2026-05-06 18:30 41.56637 -71.36702 7519 ft 246 kts 175°
2026-05-06 18:31 41.54965 -71.36188 8359 ft 247 kts 175°
2026-05-06 18:31 41.52730 -71.35503 9439 ft 250 kts 176°
2026-05-06 18:31 41.51579 -71.35151 9976 ft 252 kts 176°
2026-05-06 18:31 41.49833 -71.34624 10444 ft 268 kts 176°
2026-05-06 18:32 41.47931 -71.34059 10610 ft 292 kts 175°
2026-05-06 18:32 41.45875 -71.33444 10865 ft 312 kts 175°
2026-05-06 18:32 41.43726 -71.32789 11442 ft 320 kts 175°
2026-05-06 18:32 41.41571 -71.32128 12108 ft 325 kts 175°
2026-05-06 18:33 41.39354 -71.31448 12787 ft 329 kts 175°
2026-05-06 18:33 41.37101 -71.30761 13451 ft 334 kts 175°
2026-05-06 18:33 41.34818 -71.30067 14065 ft 339 kts 175°
2026-05-06 18:33 41.32495 -71.29363 14642 ft 345 kts 175°
2026-05-06 18:34 41.30135 -71.28648 15190 ft 351 kts 175°
2026-05-06 18:34 41.27737 -71.27923 15758 ft 356 kts 175°
2026-05-06 18:34 41.25303 -71.27188 16322 ft 361 kts 175°
2026-05-06 18:34 41.22831 -71.26456 16860 ft 365 kts 178°
2026-05-06 18:35 41.20343 -71.26407 17353 ft 354 kts 197°
2026-05-06 18:35 41.18048 -71.27450 17907 ft 347 kts 213°
2026-05-06 18:35 41.16058 -71.29234 18430 ft 346 kts 223°
2026-05-06 18:35 41.14250 -71.31355 18918 ft 347 kts 228°
2026-05-06 18:36 41.12697 -71.33795 19433 ft 347 kts 236°
2026-05-06 18:36 41.11302 -71.36417 19965 ft 349 kts 237°
2026-05-06 18:36 41.09924 -71.39079 20468 ft 352 kts 237°
2026-05-06 18:36 41.08534 -71.41779 20961 ft 355 kts 237°
2026-05-06 18:37 41.07136 -71.44490 21460 ft 358 kts 237°
2026-05-06 18:37 41.05723 -71.47218 21933 ft 360 kts 237°
2026-05-06 18:37 41.04294 -71.49964 22403 ft 363 kts 237°
2026-05-06 18:37 41.02851 -71.52728 22865 ft 366 kts 237°
2026-05-06 18:38 41.01396 -71.55508 23323 ft 369 kts 237°
2026-05-06 18:38 40.99930 -71.58302 23733 ft 371 kts 237°
2026-05-06 18:38 40.98451 -71.61118 24095 ft 374 kts 237°
2026-05-06 18:38 40.96963 -71.63947 24495 ft 375 kts 237°
2026-05-06 18:39 40.95465 -71.66791 24879 ft 377 kts 237°
2026-05-06 18:39 40.93960 -71.69647 25250 ft 380 kts 238°
2026-05-06 18:39 40.92443 -71.72521 25610 ft 382 kts 238°
2026-05-06 18:40 40.89386 -71.78308 26337 ft 386 kts 238°
2026-05-06 18:40 40.87846 -71.81218 26713 ft 387 kts 238°
2026-05-06 18:40 40.86303 -71.84131 27190 ft 386 kts 238°
2026-05-06 18:40 40.84769 -71.87021 27723 ft 383 kts 238°
2026-05-06 18:41 40.83245 -71.89892 28230 ft 381 kts 239°
2026-05-06 18:41 40.81725 -71.92753 28697 ft 380 kts 239°
2026-05-06 18:41 40.80209 -71.95604 29143 ft 379 kts 239°
2026-05-06 18:41 40.78692 -71.98457 29555 ft 380 kts 239°
2026-05-06 18:42 40.77173 -72.01311 29909 ft 381 kts 239°
2026-05-06 18:42 40.74095 -72.07087 29910 ft 384 kts 239°
2026-05-06 18:43 40.71050 -72.12779 29916 ft 377 kts 239°
2026-05-06 18:43 40.68045 -72.18395 29928 ft 378 kts 239°
2026-05-06 18:44 40.65007 -72.24063 29926 ft 379 kts 239°
2026-05-06 18:44 40.61935 -72.29786 29938 ft 388 kts 239°
2026-05-06 18:45 40.58792 -72.35629 29923 ft 391 kts 239°
2026-05-06 18:45 40.55648 -72.41454 29919 ft 390 kts 239°
2026-05-06 18:46 40.52512 -72.47257 29922 ft 390 kts 239°
2026-05-06 18:46 40.49371 -72.53060 29928 ft 389 kts 239°
2026-05-06 18:47 40.46240 -72.58832 29915 ft 387 kts 239°
2026-05-06 18:47 40.43122 -72.64573 29915 ft 385 kts 240°
2026-05-06 18:48 40.40010 -72.70290 29913 ft 384 kts 240°
2026-05-06 18:48 40.36908 -72.75981 29913 ft 383 kts 240°
2026-05-06 18:49 40.33806 -72.81660 29918 ft 383 kts 240°
2026-05-06 18:49 40.30703 -72.87333 29911 ft 383 kts 240°
2026-05-06 18:50 40.27594 -72.93004 29906 ft 383 kts 240°
2026-05-06 18:50 40.24483 -72.98670 29906 ft 384 kts 240°
2026-05-06 18:51 40.21365 -73.04339 29899 ft 384 kts 240°
2026-05-06 18:51 40.18237 -73.10015 29899 ft 385 kts 240°
2026-05-06 18:52 40.15102 -73.15693 29901 ft 385 kts 240°
2026-05-06 18:52 40.11962 -73.21373 29899 ft 386 kts 240°
2026-05-06 18:53 40.08635 -73.26900 29890 ft 392 kts 233°
2026-05-06 18:53 40.04491 -73.31626 29885 ft 397 kts 228°
2026-05-06 18:54 40.00285 -73.36286 29889 ft 396 kts 229°
2026-05-06 18:54 39.96125 -73.40923 29897 ft 396 kts 229°
2026-05-06 18:55 39.91944 -73.45592 29885 ft 396 kts 229°
2026-05-06 18:55 39.87768 -73.50248 29896 ft 395 kts 229°
2026-05-06 18:56 39.83588 -73.54900 29901 ft 395 kts 229°
2026-05-06 18:56 39.79408 -73.59550 29898 ft 395 kts 229°
2026-05-06 18:57 39.75235 -73.64189 29894 ft 395 kts 229°
2026-05-06 18:57 39.71059 -73.68826 29892 ft 395 kts 229°
2026-05-06 18:58 39.66884 -73.73454 29902 ft 395 kts 229°
2026-05-06 18:58 39.62708 -73.78074 29885 ft 393 kts 229°
2026-05-06 18:59 39.58567 -73.82646 29905 ft 391 kts 229°
2026-05-06 18:59 39.54420 -73.87224 29905 ft 392 kts 229°
2026-05-06 19:00 39.50254 -73.91812 29892 ft 394 kts 229°
2026-05-06 19:00 39.46079 -73.96403 29901 ft 394 kts 229°
2026-05-06 19:01 39.41896 -74.00993 29908 ft 395 kts 229°
2026-05-06 19:01 39.37702 -74.05583 29899 ft 395 kts 229°
2026-05-06 19:02 39.33506 -74.10164 29905 ft 395 kts 229°
2026-05-06 19:02 39.29298 -74.14753 29903 ft 396 kts 229°
2026-05-06 19:03 39.25087 -74.19339 29911 ft 396 kts 229°
2026-05-06 19:03 39.21823 -74.22893 29925 ft 403 kts 229°
2026-05-06 19:04 39.17528 -74.27556 29904 ft 403 kts 229°
2026-05-06 19:04 39.13249 -74.32190 29914 ft 401 kts 229°
2026-05-06 19:05 39.08986 -74.36803 29913 ft 400 kts 229°
2026-05-06 19:05 39.04749 -74.41384 29923 ft 400 kts 229°
2026-05-06 19:06 39.00473 -74.46001 29920 ft 403 kts 229°
2026-05-06 19:06 38.96325 -74.50813 29915 ft 395 kts 239°
2026-05-06 19:07 38.93496 -74.56716 29920 ft 384 kts 251°
2026-05-06 19:07 38.92037 -74.63079 29900 ft 356 kts 261°
2026-05-06 19:07 38.91473 -74.66105 29891 ft 341 kts 261°
2026-05-06 19:08 38.90923 -74.69004 29896 ft 328 kts 261°
2026-05-06 19:08 38.89842 -74.74590 29606 ft 322 kts 260°
2026-05-06 19:08 38.89305 -74.77360 29223 ft 318 kts 260°
2026-05-06 19:09 38.88786 -74.80102 28841 ft 315 kts 260°
2026-05-06 19:09 38.88275 -74.82814 28471 ft 311 kts 260°
2026-05-06 19:09 38.87770 -74.85498 28062 ft 308 kts 260°
2026-05-06 19:09 38.87269 -74.88154 27686 ft 305 kts 260°
2026-05-06 19:10 38.86771 -74.90788 27303 ft 302 kts 260°
2026-05-06 19:10 38.86277 -74.93397 26930 ft 300 kts 259°
2026-05-06 19:10 38.85786 -74.95988 26560 ft 297 kts 259°
2026-05-06 19:10 38.85298 -74.98554 26197 ft 295 kts 259°
2026-05-06 19:11 38.84814 -75.01099 25835 ft 293 kts 259°
2026-05-06 19:11 38.84331 -75.03633 25473 ft 291 kts 259°
2026-05-06 19:11 38.83851 -75.06148 25118 ft 289 kts 259°
2026-05-06 19:11 38.83374 -75.08647 24763 ft 288 kts 258°
2026-05-06 19:12 38.82898 -75.11137 24413 ft 287 kts 258°
2026-05-06 19:12 38.82425 -75.13611 24064 ft 285 kts 258°
2026-05-06 19:12 38.81952 -75.16078 23708 ft 285 kts 258°
2026-05-06 19:12 38.81478 -75.18542 23323 ft 284 kts 258°
2026-05-06 19:13 38.81033 -75.21000 22919 ft 282 kts 261°
2026-05-06 19:13 38.80795 -75.23514 22344 ft 286 kts 265°
2026-05-06 19:13 38.80642 -75.26046 21941 ft 285 kts 265°
2026-05-06 19:13 38.80497 -75.28571 21590 ft 283 kts 265°
2026-05-06 19:14 38.80352 -75.31083 21234 ft 281 kts 265°
2026-05-06 19:14 38.80203 -75.33584 20776 ft 283 kts 265°
2026-05-06 19:14 38.80053 -75.36059 20531 ft 278 kts 265°
2026-05-06 19:14 38.79902 -75.38513 20243 ft 275 kts 265°
2026-05-06 19:15 38.79750 -75.40949 19898 ft 273 kts 265°
2026-05-06 19:15 38.79598 -75.43374 19578 ft 273 kts 265°
2026-05-06 19:15 38.79445 -75.45801 19255 ft 274 kts 265°
2026-05-06 19:15 38.79290 -75.48249 18943 ft 278 kts 265°
2026-05-06 19:16 38.79129 -75.50761 18622 ft 287 kts 265°
2026-05-06 19:16 38.78964 -75.53352 18142 ft 295 kts 265°
2026-05-06 19:16 38.78796 -75.55969 17737 ft 294 kts 264°
2026-05-06 19:16 38.78630 -75.58559 17490 ft 288 kts 264°
2026-05-06 19:17 38.78521 -75.60249 17273 ft 286 kts 264°
2026-05-06 19:17 38.78358 -75.62768 16948 ft 283 kts 264°
2026-05-06 19:17 38.78196 -75.65272 16629 ft 280 kts 264°
2026-05-06 19:17 38.78034 -75.67751 16288 ft 278 kts 264°
2026-05-06 19:18 38.77822 -75.71005 15857 ft 275 kts 264°
2026-05-06 19:18 38.77662 -75.73444 15536 ft 273 kts 264°
2026-05-06 19:18 38.77503 -75.75860 15216 ft 272 kts 264°
2026-05-06 19:18 38.77396 -75.77489 15005 ft 271 kts 264°
2026-05-06 19:19 38.77238 -75.79884 14691 ft 269 kts 264°
2026-05-06 19:19 38.77080 -75.82266 14382 ft 268 kts 264°
2026-05-06 19:19 38.76922 -75.84634 14072 ft 266 kts 263°
2026-05-06 19:19 38.76765 -75.86992 13763 ft 265 kts 263°
2026-05-06 19:20 38.76608 -75.89341 13420 ft 264 kts 263°
2026-05-06 19:20 38.76451 -75.91679 13084 ft 263 kts 263°
2026-05-06 19:20 38.76295 -75.94006 12758 ft 261 kts 263°
2026-05-06 19:20 38.76139 -75.96317 12440 ft 260 kts 263°
2026-05-06 19:21 38.75984 -75.98615 12127 ft 258 kts 263°
2026-05-06 19:21 38.75828 -76.00905 11813 ft 258 kts 263°
2026-05-06 19:21 38.75675 -76.03157 11493 ft 257 kts 263°
2026-05-06 19:21 38.75519 -76.05438 11172 ft 256 kts 263°
2026-05-06 19:22 38.75481 -76.07727 11043 ft 251 kts 271°
2026-05-06 19:22 38.75662 -76.09956 10969 ft 254 kts 273°
2026-05-06 19:22 38.75893 -76.12218 10927 ft 264 kts 274°
2026-05-06 19:22 38.76137 -76.14577 10873 ft 270 kts 274°
2026-05-06 19:23 38.76380 -76.16966 10820 ft 270 kts 274°
2026-05-06 19:23 38.76616 -76.19339 10751 ft 267 kts 274°
2026-05-06 19:23 38.76845 -76.21683 10699 ft 265 kts 274°
2026-05-06 19:23 38.77069 -76.24018 10649 ft 263 kts 273°
2026-05-06 19:24 38.77288 -76.26333 10602 ft 261 kts 273°
2026-05-06 19:24 38.77505 -76.28646 10549 ft 262 kts 273°
2026-05-06 19:24 38.77721 -76.30964 10510 ft 262 kts 273°
2026-05-06 19:24 38.77937 -76.33292 10459 ft 264 kts 273°
2026-05-06 19:25 38.78154 -76.35634 10422 ft 265 kts 273°
2026-05-06 19:25 38.78371 -76.37988 10367 ft 267 kts 273°
2026-05-06 19:25 38.78589 -76.40358 10311 ft 268 kts 273°
2026-05-06 19:25 38.78807 -76.42728 10264 ft 268 kts 273°
2026-05-06 19:26 38.79024 -76.45096 10211 ft 266 kts 273°
2026-05-06 19:26 38.79238 -76.47423 10148 ft 258 kts 273°
2026-05-06 19:26 38.79444 -76.49665 10091 ft 248 kts 273°
2026-05-06 19:26 38.79641 -76.51820 10036 ft 241 kts 273°
2026-05-06 19:27 38.79816 -76.53943 9982 ft 240 kts 270°
2026-05-06 19:27 38.79904 -76.56098 9759 ft 244 kts 269°
2026-05-06 19:27 38.79969 -76.58287 9507 ft 247 kts 269°
2026-05-06 19:27 38.80034 -76.60485 9265 ft 245 kts 269°
2026-05-06 19:28 38.80100 -76.62654 9041 ft 242 kts 269°
2026-05-06 19:28 38.80168 -76.64793 8826 ft 239 kts 270°
2026-05-06 19:28 38.80237 -76.66912 8611 ft 238 kts 270°
2026-05-06 19:28 38.80306 -76.69027 8407 ft 237 kts 270°
2026-05-06 19:29 38.80376 -76.71143 8202 ft 238 kts 270°
2026-05-06 19:29 38.80444 -76.73267 7977 ft 239 kts 270°
2026-05-06 19:29 38.80513 -76.75398 7756 ft 239 kts 270°
2026-05-06 19:29 38.80684 -76.77517 7527 ft 241 kts 282°
2026-05-06 19:30 38.81393 -76.79473 7321 ft 245 kts 299°
2026-05-06 19:30 38.82433 -76.81219 7117 ft 247 kts 303°
2026-05-06 19:30 38.83508 -76.82894 6904 ft 247 kts 304°
2026-05-06 19:30 38.84611 -76.84623 6671 ft 248 kts 304°
2026-05-06 19:31 38.85699 -76.86352 6456 ft 248 kts 304°
2026-05-06 19:31 38.86770 -76.88066 6224 ft 245 kts 304°
2026-05-06 19:31 38.88970 -76.91309 6026 ft 242 kts 309°
2026-05-06 19:32 38.90160 -76.92815 5822 ft 239 kts 310°
2026-05-06 19:32 38.91333 -76.94284 5554 ft 231 kts 310°
2026-05-06 19:32 38.92463 -76.95705 5301 ft 224 kts 310°
2026-05-06 19:32 38.93561 -76.97094 5030 ft 220 kts 310°
2026-05-06 19:33 38.94642 -76.98469 4725 ft 217 kts 310°
2026-05-06 19:33 38.95692 -76.99806 4420 ft 213 kts 309°
2026-05-06 19:33 38.96745 -77.01152 4175 ft 212 kts 309°
2026-05-06 19:33 38.97804 -77.02511 3846 ft 216 kts 309°
2026-05-06 19:34 38.98875 -77.03881 3579 ft 220 kts 309°
2026-05-06 19:34 38.99981 -77.05300 3338 ft 227 kts 309°
2026-05-06 19:34 39.01126 -77.06773 3057 ft 238 kts 309°
2026-05-06 19:34 39.02290 -77.08265 3027 ft 234 kts 309°
2026-05-06 19:35 39.03429 -77.09724 2963 ft 225 kts 309°
2026-05-06 19:35 39.04180 -77.11321 3000 ft 203 kts 273°
2026-05-06 19:35 39.04028 -77.13078 3024 ft 201 kts 246°
2026-05-06 19:35 39.03273 -77.14564 3010 ft 200 kts 223°
2026-05-06 19:36 39.02071 -77.15468 3011 ft 204 kts 199°
2026-05-06 19:36 39.00690 -77.15645 3015 ft 196 kts 184°
2026-05-06 19:36 38.99348 -77.15561 2952 ft 192 kts 183°
2026-05-06 19:36 38.98012 -77.15459 2851 ft 190 kts 182°
2026-05-06 19:37 38.96723 -77.15251 2691 ft 185 kts 166°
2026-05-06 19:37 38.95643 -77.14378 2491 ft 182 kts 147°
2026-05-06 19:37 38.94685 -77.13331 2297 ft 180 kts 146°
2026-05-06 19:37 38.93746 -77.12282 2082 ft 176 kts 147°
2026-05-06 19:38 38.92781 -77.11423 1853 ft 164 kts 159°
2026-05-06 19:38 38.91811 -77.10791 1698 ft 147 kts 162°
2026-05-06 19:38 38.90989 -77.10073 1474 ft 150 kts 139°
2026-05-06 19:38 38.90502 -77.08866 1299 ft 158 kts 106°
2026-05-06 19:39 38.90266 -77.07483 1067 ft 159 kts 121°
2026-05-06 19:39 38.89603 -77.06393 876 ft 150 kts 142°
2026-05-06 19:39 38.88877 -77.05446 691 ft 151 kts 140°
2026-05-06 19:39 38.88143 -77.04523 449 ft 139 kts 151°
2026-05-06 19:40 38.87333 -77.03988 317 ft 132 kts 174°
2026-05-06 19:40 38.86425 -77.03923 174 ft 133 kts 179°
2026-05-06 19:40 38.85503 -77.03803 27 ft 130 kts 179°
2026-05-06 19:40 38.84662 -77.03712 19 ft 89 kts 188°
2026-05-06 19:41 38.84365 -77.03695 18 ft 17 kts 175°
2026-05-06 19:41 38.84275 -77.03737 20 ft 15 kts 269°
2026-05-06 19:41 38.84310 -77.03819 22 ft 10 kts 327°
2026-05-06 19:41 38.84362 -77.03851 23 ft 0 kts 324°
2026-05-06 19:43 38.84383 -77.03890 27 ft 9 kts 284°
2026-05-06 19:43 38.84383 -77.03980 23 ft 12 kts 268°
2026-05-06 19:43 38.84391 -77.04092 25 ft 14 kts 306°
2026-05-06 19:43 38.84487 -77.04132 27 ft 16 kts 355°
2026-05-06 19:44 38.84591 -77.04090 24 ft 16 kts 18°
2026-05-06 19:44 38.84670 -77.04162 24 ft 15 kts 294°
2026-05-06 19:44 38.84679 -77.04186 26 ft 0 kts 296°